Information on these data can be found in provided Readme document
Contact Info: Zachary Fasnacht (zachary.fasnacht@ssaihq.com); Nickolay Krotkov (nickolay.a.krotkov@nasa.gov); Lok Lamsal (lok.lamsal@nasa.gov)

FillValue: -999.
ScaleFactor: 1e15
Units: molecules/cm^2

Date(yyyy-mm-dd),City,Country,LonCenter,LatCenter,BoundingCoordinates,Median,Q1,Q3,Mean,Baseline_Median,Baseline_Q1,Baseline_Q3,Baseline_Mean,NumGoodSamples,NumTotalSamples
2015-01-01,Peshawar,Pakistan,71.5249,34.0151,[71.0249 33.5151 72.0249 34.5151],2.261,1.336,2.998,2.329,2.421,1.539,3.679,2.781,219.0,566.0
2015-01-02,Peshawar,Pakistan,71.5249,34.0151,[71.0249 33.5151 72.0249 34.5151],2.268,1.396,3.032,2.397,2.427,1.53,3.74,2.792,249.0,577.0
2015-01-03,Peshawar,Pakistan,71.5249,34.0151,[71.0249 33.5151 72.0249 34.5151],2.27,1.476,3.038,2.443,2.394,1.51,3.59,2.736,224.0,574.0
2015-01-04,Peshawar,Pakistan,71.5249,34.0151,[71.0249 33.5151 72.0249 34.5151],2.308,1.477,3.206,2.498,2.406,1.534,3.638,2.709,250.0,568.0
2015-01-05,Peshawar,Pakistan,71.5249,34.0151,[71.0249 33.5151 72.0249 34.5151],2.343,1.443,3.234,2.516,2.469,1.482,3.731,2.743,222.0,574.0
2015-01-06,Peshawar,Pakistan,71.5249,34.0151,[71.0249 33.5151 72.0249 34.5151],2.343,1.443,3.234,2.516,2.468,1.543,3.676,2.744,222.0,561.0
2015-01-07,Peshawar,Pakistan,71.5249,34.0151,[71.0249 33.5151 72.0249 34.5151],2.429,1.482,3.247,2.553,2.559,1.623,3.787,2.836,201.0,565.0
2015-01-08,Peshawar,Pakistan,71.5249,34.0151,[71.0249 33.5151 72.0249 34.5151],2.343,1.519,3.038,2.478,2.542,1.588,3.675,2.771,234.0,563.0
2015-01-09,Peshawar,Pakistan,71.5249,34.0151,[71.0249 33.5151 72.0249 34.5151],2.456,1.653,3.094,2.562,2.511,1.578,3.651,2.745,221.0,576.0
2015-01-10,Peshawar,Pakistan,71.5249,34.0151,[71.0249 33.5151 72.0249 34.5151],2.505,1.656,3.038,2.556,2.603,1.639,3.8,2.879,193.0,541.0
2015-01-11,Peshawar,Pakistan,71.5249,34.0151,[71.0249 33.5151 72.0249 34.5151],2.505,1.653,3.086,2.551,2.582,1.607,3.754,2.836,218.0,545.0
2015-01-12,Peshawar,Pakistan,71.5249,34.0151,[71.0249 33.5151 72.0249 34.5151],2.35,1.648,2.983,2.462,2.56,1.618,3.757,2.833,202.0,553.0
2015-01-13,Peshawar,Pakistan,71.5249,34.0151,[71.0249 33.5151 72.0249 34.5151],2.35,1.653,2.983,2.472,2.595,1.598,3.83,2.859,205.0,536.0
2015-01-14,Peshawar,Pakistan,71.5249,34.0151,[71.0249 33.5151 72.0249 34.5151],2.27,1.573,2.983,2.488,2.546,1.621,3.863,2.894,165.0,535.0
2015-01-15,Peshawar,Pakistan,71.5249,34.0151,[71.0249 33.5151 72.0249 34.5151],2.27,1.573,2.983,2.488,2.571,1.635,3.947,2.917,165.0,531.0
2015-01-16,Peshawar,Pakistan,71.5249,34.0151,[71.0249 33.5151 72.0249 34.5151],2.378,1.619,3.184,2.586,2.587,1.641,3.99,2.96,130.0,535.0
2015-01-17,Peshawar,Pakistan,71.5249,34.0151,[71.0249 33.5151 72.0249 34.5151],1.963,1.342,2.897,2.288,2.574,1.646,3.889,2.94,114.0,537.0
2015-01-18,Peshawar,Pakistan,71.5249,34.0151,[71.0249 33.5151 72.0249 34.5151],1.949,1.342,2.893,2.248,2.57,1.679,3.81,2.926,138.0,550.0
2015-01-19,Peshawar,Pakistan,71.5249,34.0151,[71.0249 33.5151 72.0249 34.5151],1.918,1.336,2.782,2.079,2.443,1.638,3.754,2.871,112.0,548.0
2015-01-20,Peshawar,Pakistan,71.5249,34.0151,[71.0249 33.5151 72.0249 34.5151],1.923,1.342,2.823,2.175,2.364,1.552,3.586,2.764,137.0,539.0
2015-01-21,Peshawar,Pakistan,71.5249,34.0151,[71.0249 33.5151 72.0249 34.5151],1.923,1.342,2.823,2.175,2.362,1.54,3.474,2.744,137.0,544.0
2015-01-22,Peshawar,Pakistan,71.5249,34.0151,[71.0249 33.5151 72.0249 34.5151],2.022,1.592,2.893,2.3,2.263,1.499,3.348,2.624,167.0,530.0
2015-01-23,Peshawar,Pakistan,71.5249,34.0151,[71.0249 33.5151 72.0249 34.5151],2.088,1.592,3.041,2.369,2.266,1.428,3.378,2.622,128.0,534.0
2015-01-24,Peshawar,Pakistan,71.5249,34.0151,[71.0249 33.5151 72.0249 34.5151],2.232,1.752,3.237,2.491,2.324,1.495,3.446,2.665,157.0,533.0
2015-01-25,Peshawar,Pakistan,71.5249,34.0151,[71.0249 33.5151 72.0249 34.5151],2.232,1.752,3.237,2.491,2.219,1.448,3.135,2.47,157.0,579.0
2015-01-26,Peshawar,Pakistan,71.5249,34.0151,[71.0249 33.5151 72.0249 34.5151],2.232,1.761,3.237,2.491,2.191,1.417,3.096,2.43,132.0,574.0
2015-01-27,Peshawar,Pakistan,71.5249,34.0151,[71.0249 33.5151 72.0249 34.5151],2.232,1.773,3.237,2.493,2.132,1.39,3.047,2.371,157.0,577.0
2015-01-28,Peshawar,Pakistan,71.5249,34.0151,[71.0249 33.5151 72.0249 34.5151],2.232,1.761,3.237,2.481,2.1,1.37,2.986,2.337,154.0,583.0
2015-01-29,Peshawar,Pakistan,71.5249,34.0151,[71.0249 33.5151 72.0249 34.5151],2.224,1.623,3.176,2.414,2.107,1.38,2.927,2.294,172.0,566.0
2015-01-30,Peshawar,Pakistan,71.5249,34.0151,[71.0249 33.5151 72.0249 34.5151],2.224,1.623,3.176,2.414,2.112,1.408,2.937,2.3,172.0,564.0
2015-01-31,Peshawar,Pakistan,71.5249,34.0151,[71.0249 33.5151 72.0249 34.5151],2.224,1.623,3.176,2.414,2.087,1.397,2.946,2.262,172.0,560.0
2015-02-01,Peshawar,Pakistan,71.5249,34.0151,[71.0249 33.5151 72.0249 34.5151],2.232,1.773,3.256,2.517,2.154,1.455,3.059,2.348,158.0,564.0
2015-02-02,Peshawar,Pakistan,71.5249,34.0151,[71.0249 33.5151 72.0249 34.5151],2.048,1.195,2.805,2.138,2.12,1.344,2.945,2.261,172.0,567.0
2015-02-03,Peshawar,Pakistan,71.5249,34.0151,[71.0249 33.5151 72.0249 34.5151],2.008,1.109,2.773,2.086,2.097,1.28,2.883,2.207,203.0,579.0
2015-02-04,Peshawar,Pakistan,71.5249,34.0151,[71.0249 33.5151 72.0249 34.5151],1.954,1.109,2.704,2.026,2.057,1.324,2.917,2.214,178.0,579.0
2015-02-05,Peshawar,Pakistan,71.5249,34.0151,[71.0249 33.5151 72.0249 34.5151],2.048,1.109,2.805,2.137,2.049,1.32,2.914,2.213,197.0,572.0
2015-02-06,Peshawar,Pakistan,71.5249,34.0151,[71.0249 33.5151 72.0249 34.5151],1.935,0.94,2.714,2.0,2.058,1.328,2.909,2.213,167.0,578.0
2015-02-07,Peshawar,Pakistan,71.5249,34.0151,[71.0249 33.5151 72.0249 34.5151],1.787,1.043,2.585,1.965,1.998,1.353,2.816,2.176,197.0,563.0
2015-02-08,Peshawar,Pakistan,71.5249,34.0151,[71.0249 33.5151 72.0249 34.5151],1.515,0.876,2.216,1.732,1.954,1.341,2.753,2.142,161.0,564.0
2015-02-09,Peshawar,Pakistan,71.5249,34.0151,[71.0249 33.5151 72.0249 34.5151],1.515,0.876,2.216,1.732,1.927,1.297,2.804,2.128,161.0,560.0
2015-02-10,Peshawar,Pakistan,71.5249,34.0151,[71.0249 33.5151 72.0249 34.5151],1.544,0.876,2.188,1.733,1.969,1.32,2.778,2.162,168.0,573.0
2015-02-11,Peshawar,Pakistan,71.5249,34.0151,[71.0249 33.5151 72.0249 34.5151],1.387,0.865,2.102,1.648,1.98,1.339,2.813,2.175,143.0,537.0
2015-02-12,Peshawar,Pakistan,71.5249,34.0151,[71.0249 33.5151 72.0249 34.5151],1.387,0.865,2.102,1.648,1.999,1.337,2.805,2.185,143.0,540.0
2015-02-13,Peshawar,Pakistan,71.5249,34.0151,[71.0249 33.5151 72.0249 34.5151],1.35,0.863,2.068,1.609,1.961,1.329,2.808,2.174,125.0,547.0
2015-02-14,Peshawar,Pakistan,71.5249,34.0151,[71.0249 33.5151 72.0249 34.5151],1.35,0.863,2.068,1.609,1.92,1.311,2.744,2.124,125.0,532.0
2015-02-15,Peshawar,Pakistan,71.5249,34.0151,[71.0249 33.5151 72.0249 34.5151],1.35,0.863,2.068,1.609,1.94,1.299,2.751,2.093,125.0,532.0
2015-02-16,Peshawar,Pakistan,71.5249,34.0151,[71.0249 33.5151 72.0249 34.5151],1.35,0.863,2.068,1.609,1.787,1.188,2.627,1.968,125.0,528.0
2015-02-17,Peshawar,Pakistan,71.5249,34.0151,[71.0249 33.5151 72.0249 34.5151],1.706,1.114,2.501,2.09,1.862,1.263,2.692,2.037,87.0,533.0
2015-02-18,Peshawar,Pakistan,71.5249,34.0151,[71.0249 33.5151 72.0249 34.5151],1.802,1.274,2.421,2.144,1.903,1.292,2.686,2.065,70.0,536.0
2015-02-19,Peshawar,Pakistan,71.5249,34.0151,[71.0249 33.5151 72.0249 34.5151],1.802,1.274,2.573,2.109,1.901,1.301,2.799,2.078,101.0,547.0
2015-02-20,Peshawar,Pakistan,71.5249,34.0151,[71.0249 33.5151 72.0249 34.5151],1.674,1.167,2.291,1.818,1.915,1.284,2.724,2.033,82.0,546.0
2015-02-21,Peshawar,Pakistan,71.5249,34.0151,[71.0249 33.5151 72.0249 34.5151],1.706,1.114,2.552,1.892,1.916,1.268,2.689,2.019,107.0,540.0
2015-02-22,Peshawar,Pakistan,71.5249,34.0151,[71.0249 33.5151 72.0249 34.5151],1.806,0.965,2.855,1.943,1.951,1.286,2.778,2.073,77.0,546.0
2015-02-23,Peshawar,Pakistan,71.5249,34.0151,[71.0249 33.5151 72.0249 34.5151],1.806,0.965,2.855,1.943,1.951,1.296,2.712,2.063,77.0,533.0
2015-02-24,Peshawar,Pakistan,71.5249,34.0151,[71.0249 33.5151 72.0249 34.5151],1.806,0.965,2.855,1.943,1.973,1.331,2.79,2.106,77.0,538.0
2015-02-25,Peshawar,Pakistan,71.5249,34.0151,[71.0249 33.5151 72.0249 34.5151],1.695,1.094,2.714,1.926,1.923,1.273,2.748,2.065,77.0,537.0
2015-02-26,Peshawar,Pakistan,71.5249,34.0151,[71.0249 33.5151 72.0249 34.5151],1.695,1.094,2.714,1.926,2.013,1.35,2.79,2.104,77.0,583.0
2015-02-27,Peshawar,Pakistan,71.5249,34.0151,[71.0249 33.5151 72.0249 34.5151],1.665,1.301,2.569,1.913,1.954,1.294,2.71,2.05,97.0,579.0
2015-02-28,Peshawar,Pakistan,71.5249,34.0151,[71.0249 33.5151 72.0249 34.5151],1.665,1.301,2.569,1.913,1.963,1.317,2.716,2.053,97.0,582.0
2015-03-01,Peshawar,Pakistan,71.5249,34.0151,[71.0249 33.5151 72.0249 34.5151],1.665,1.301,2.569,1.913,1.985,1.291,2.794,2.057,97.0,587.0
2015-03-02,Peshawar,Pakistan,71.5249,34.0151,[71.0249 33.5151 72.0249 34.5151],1.8,1.303,2.763,2.02,1.99,1.325,2.762,2.071,115.0,571.0
2015-03-03,Peshawar,Pakistan,71.5249,34.0151,[71.0249 33.5151 72.0249 34.5151],1.8,1.303,2.763,2.02,1.964,1.3,2.79,2.067,115.0,571.0
2015-03-04,Peshawar,Pakistan,71.5249,34.0151,[71.0249 33.5151 72.0249 34.5151],1.779,1.306,2.714,2.016,1.972,1.311,2.799,2.078,116.0,566.0
2015-03-05,Peshawar,Pakistan,71.5249,34.0151,[71.0249 33.5151 72.0249 34.5151],1.818,1.31,2.791,2.074,2.007,1.312,2.806,2.099,102.0,569.0
2015-03-06,Peshawar,Pakistan,71.5249,34.0151,[71.0249 33.5151 72.0249 34.5151],1.995,1.568,2.904,2.27,1.989,1.368,2.859,2.13,108.0,572.0
2015-03-07,Peshawar,Pakistan,71.5249,34.0151,[71.0249 33.5151 72.0249 34.5151],1.992,1.557,2.874,2.236,1.948,1.416,2.857,2.134,127.0,583.0
2015-03-08,Peshawar,Pakistan,71.5249,34.0151,[71.0249 33.5151 72.0249 34.5151],1.992,1.568,2.809,2.242,1.862,1.3,2.662,2.01,102.0,581.0
2015-03-09,Peshawar,Pakistan,71.5249,34.0151,[71.0249 33.5151 72.0249 34.5151],1.992,1.568,2.809,2.242,1.805,1.292,2.516,1.946,102.0,574.0
2015-03-10,Peshawar,Pakistan,71.5249,34.0151,[71.0249 33.5151 72.0249 34.5151],1.992,1.568,2.809,2.242,1.787,1.227,2.451,1.899,102.0,580.0
2015-03-11,Peshawar,Pakistan,71.5249,34.0151,[71.0249 33.5151 72.0249 34.5151],1.824,1.347,2.584,2.017,1.755,1.114,2.412,1.832,132.0,565.0
2015-03-12,Peshawar,Pakistan,71.5249,34.0151,[71.0249 33.5151 72.0249 34.5151],1.828,1.317,2.639,2.029,1.705,1.086,2.354,1.8,125.0,566.0
2015-03-13,Peshawar,Pakistan,71.5249,34.0151,[71.0249 33.5151 72.0249 34.5151],1.828,1.317,2.639,2.029,1.629,1.049,2.325,1.731,125.0,563.0
2015-03-14,Peshawar,Pakistan,71.5249,34.0151,[71.0249 33.5151 72.0249 34.5151],1.909,1.37,2.659,2.054,1.658,1.02,2.266,1.706,113.0,576.0
2015-03-15,Peshawar,Pakistan,71.5249,34.0151,[71.0249 33.5151 72.0249 34.5151],1.909,1.37,2.659,2.054,1.609,1.02,2.214,1.661,113.0,540.0
2015-03-16,Peshawar,Pakistan,71.5249,34.0151,[71.0249 33.5151 72.0249 34.5151],1.876,1.347,2.648,2.024,1.573,1.002,2.187,1.638,141.0,544.0
2015-03-17,Peshawar,Pakistan,71.5249,34.0151,[71.0249 33.5151 72.0249 34.5151],1.832,1.296,2.584,1.954,1.519,0.947,2.149,1.604,123.0,552.0
2015-03-18,Peshawar,Pakistan,71.5249,34.0151,[71.0249 33.5151 72.0249 34.5151],1.776,1.235,2.496,1.911,1.507,0.869,2.136,1.526,144.0,533.0
2015-03-19,Peshawar,Pakistan,71.5249,34.0151,[71.0249 33.5151 72.0249 34.5151],1.758,1.235,2.496,1.913,1.509,0.873,2.141,1.529,143.0,533.0
2015-03-20,Peshawar,Pakistan,71.5249,34.0151,[71.0249 33.5151 72.0249 34.5151],1.827,1.296,2.475,1.9,1.505,0.911,2.113,1.561,178.0,528.0
2015-03-21,Peshawar,Pakistan,71.5249,34.0151,[71.0249 33.5151 72.0249 34.5151],1.591,0.995,2.176,1.666,1.446,0.803,2.037,1.507,141.0,529.0
2015-03-22,Peshawar,Pakistan,71.5249,34.0151,[71.0249 33.5151 72.0249 34.5151],1.637,1.13,2.302,1.793,1.452,0.811,2.063,1.525,127.0,530.0
2015-03-23,Peshawar,Pakistan,71.5249,34.0151,[71.0249 33.5151 72.0249 34.5151],1.608,1.118,2.268,1.772,1.484,0.889,2.166,1.568,135.0,538.0
2015-03-24,Peshawar,Pakistan,71.5249,34.0151,[71.0249 33.5151 72.0249 34.5151],1.608,1.118,2.268,1.772,1.509,0.893,2.216,1.599,135.0,537.0
2015-03-25,Peshawar,Pakistan,71.5249,34.0151,[71.0249 33.5151 72.0249 34.5151],1.608,1.118,2.268,1.772,1.592,0.922,2.29,1.656,135.0,529.0
2015-03-26,Peshawar,Pakistan,71.5249,34.0151,[71.0249 33.5151 72.0249 34.5151],1.801,1.23,2.496,1.943,1.605,0.945,2.298,1.663,105.0,537.0
2015-03-27,Peshawar,Pakistan,71.5249,34.0151,[71.0249 33.5151 72.0249 34.5151],1.592,0.864,2.157,1.74,1.646,0.945,2.324,1.692,132.0,527.0
2015-03-28,Peshawar,Pakistan,71.5249,34.0151,[71.0249 33.5151 72.0249 34.5151],1.592,0.864,2.157,1.74,1.656,0.957,2.331,1.717,132.0,531.0
2015-03-29,Peshawar,Pakistan,71.5249,34.0151,[71.0249 33.5151 72.0249 34.5151],1.642,0.974,2.155,1.725,1.666,1.012,2.359,1.731,149.0,527.0
2015-03-30,Peshawar,Pakistan,71.5249,34.0151,[71.0249 33.5151 72.0249 34.5151],1.642,0.974,2.155,1.725,1.728,1.037,2.392,1.781,149.0,573.0
2015-03-31,Peshawar,Pakistan,71.5249,34.0151,[71.0249 33.5151 72.0249 34.5151],1.687,1.07,2.302,1.815,1.78,1.026,2.513,1.864,126.0,570.0
2015-04-01,Peshawar,Pakistan,71.5249,34.0151,[71.0249 33.5151 72.0249 34.5151],1.687,0.974,2.302,1.774,1.848,1.207,2.527,1.892,155.0,569.0
2015-04-02,Peshawar,Pakistan,71.5249,34.0151,[71.0249 33.5151 72.0249 34.5151],1.72,1.074,2.326,1.822,1.913,1.268,2.576,1.962,142.0,581.0
2015-04-03,Peshawar,Pakistan,71.5249,34.0151,[71.0249 33.5151 72.0249 34.5151],1.688,1.013,2.323,1.784,1.874,1.186,2.567,1.928,162.0,563.0
2015-04-04,Peshawar,Pakistan,71.5249,34.0151,[71.0249 33.5151 72.0249 34.5151],1.642,0.875,2.313,1.759,1.894,1.174,2.574,1.908,127.0,565.0
2015-04-05,Peshawar,Pakistan,71.5249,34.0151,[71.0249 33.5151 72.0249 34.5151],1.547,0.909,2.119,1.681,1.851,1.179,2.473,1.876,166.0,563.0
2015-04-06,Peshawar,Pakistan,71.5249,34.0151,[71.0249 33.5151 72.0249 34.5151],1.509,0.875,2.03,1.576,1.841,1.192,2.453,1.875,161.0,567.0
2015-04-07,Peshawar,Pakistan,71.5249,34.0151,[71.0249 33.5151 72.0249 34.5151],1.565,0.984,2.062,1.631,1.844,1.178,2.447,1.871,187.0,572.0
2015-04-08,Peshawar,Pakistan,71.5249,34.0151,[71.0249 33.5151 72.0249 34.5151],1.565,1.013,2.137,1.659,1.813,1.139,2.489,1.87,199.0,581.0
2015-04-09,Peshawar,Pakistan,71.5249,34.0151,[71.0249 33.5151 72.0249 34.5151],1.642,1.027,2.323,1.788,1.782,1.121,2.517,1.883,222.0,581.0
2015-04-10,Peshawar,Pakistan,71.5249,34.0151,[71.0249 33.5151 72.0249 34.5151],1.646,1.027,2.431,1.797,1.828,1.157,2.585,1.927,248.0,572.0
2015-04-11,Peshawar,Pakistan,71.5249,34.0151,[71.0249 33.5151 72.0249 34.5151],1.75,1.067,2.591,1.896,1.839,1.143,2.628,1.935,226.0,575.0
2015-04-12,Peshawar,Pakistan,71.5249,34.0151,[71.0249 33.5151 72.0249 34.5151],1.75,1.067,2.591,1.896,1.834,1.147,2.644,1.942,226.0,561.0
2015-04-13,Peshawar,Pakistan,71.5249,34.0151,[71.0249 33.5151 72.0249 34.5151],1.771,1.062,2.642,1.933,1.873,1.133,2.673,1.963,201.0,566.0
2015-04-14,Peshawar,Pakistan,71.5249,34.0151,[71.0249 33.5151 72.0249 34.5151],1.565,0.976,2.468,1.743,1.772,1.076,2.642,1.901,240.0,563.0
2015-04-15,Peshawar,Pakistan,71.5249,34.0151,[71.0249 33.5151 72.0249 34.5151],1.507,0.935,2.323,1.615,1.712,1.064,2.518,1.833,268.0,576.0
2015-04-16,Peshawar,Pakistan,71.5249,34.0151,[71.0249 33.5151 72.0249 34.5151],1.5,0.956,2.323,1.63,1.692,1.028,2.487,1.811,239.0,542.0
2015-04-17,Peshawar,Pakistan,71.5249,34.0151,[71.0249 33.5151 72.0249 34.5151],1.497,0.909,2.311,1.598,1.693,1.039,2.445,1.795,260.0,541.0
2015-04-18,Peshawar,Pakistan,71.5249,34.0151,[71.0249 33.5151 72.0249 34.5151],1.497,0.935,2.3,1.606,1.751,1.089,2.554,1.837,266.0,551.0
2015-04-19,Peshawar,Pakistan,71.5249,34.0151,[71.0249 33.5151 72.0249 34.5151],1.515,0.973,2.409,1.684,1.765,1.086,2.581,1.861,284.0,534.0
2015-04-20,Peshawar,Pakistan,71.5249,34.0151,[71.0249 33.5151 72.0249 34.5151],1.565,0.976,2.481,1.733,1.843,1.113,2.647,1.908,245.0,535.0
2015-04-21,Peshawar,Pakistan,71.5249,34.0151,[71.0249 33.5151 72.0249 34.5151],1.637,1.014,2.541,1.796,1.832,1.111,2.688,1.919,281.0,531.0
2015-04-22,Peshawar,Pakistan,71.5249,34.0151,[71.0249 33.5151 72.0249 34.5151],1.637,0.973,2.552,1.8,1.889,1.151,2.722,1.959,247.0,535.0
2015-04-23,Peshawar,Pakistan,71.5249,34.0151,[71.0249 33.5151 72.0249 34.5151],1.661,0.994,2.552,1.859,1.903,1.167,2.692,1.97,254.0,540.0
2015-04-24,Peshawar,Pakistan,71.5249,34.0151,[71.0249 33.5151 72.0249 34.5151],1.574,0.973,2.425,1.724,1.936,1.202,2.701,1.978,251.0,549.0
2015-04-25,Peshawar,Pakistan,71.5249,34.0151,[71.0249 33.5151 72.0249 34.5151],1.578,0.976,2.425,1.739,1.912,1.178,2.701,1.969,251.0,548.0
2015-04-26,Peshawar,Pakistan,71.5249,34.0151,[71.0249 33.5151 72.0249 34.5151],1.578,0.976,2.391,1.721,1.948,1.207,2.711,1.988,271.0,541.0
2015-04-27,Peshawar,Pakistan,71.5249,34.0151,[71.0249 33.5151 72.0249 34.5151],1.602,0.995,2.425,1.746,1.948,1.218,2.701,1.988,289.0,543.0
2015-04-28,Peshawar,Pakistan,71.5249,34.0151,[71.0249 33.5151 72.0249 34.5151],1.578,1.028,2.34,1.719,1.918,1.234,2.677,1.977,316.0,530.0
2015-04-29,Peshawar,Pakistan,71.5249,34.0151,[71.0249 33.5151 72.0249 34.5151],1.779,1.168,2.438,1.869,2.01,1.312,2.74,2.055,277.0,533.0
2015-04-30,Peshawar,Pakistan,71.5249,34.0151,[71.0249 33.5151 72.0249 34.5151],1.801,1.234,2.481,1.953,2.065,1.37,2.811,2.11,263.0,530.0
2015-05-01,Peshawar,Pakistan,71.5249,34.0151,[71.0249 33.5151 72.0249 34.5151],1.801,1.202,2.48,1.942,2.082,1.429,2.827,2.148,294.0,574.0
2015-05-02,Peshawar,Pakistan,71.5249,34.0151,[71.0249 33.5151 72.0249 34.5151],1.976,1.329,2.653,2.107,2.12,1.454,2.857,2.19,285.0,570.0
2015-05-03,Peshawar,Pakistan,71.5249,34.0151,[71.0249 33.5151 72.0249 34.5151],2.042,1.374,2.723,2.159,2.15,1.505,2.905,2.238,285.0,571.0
2015-05-04,Peshawar,Pakistan,71.5249,34.0151,[71.0249 33.5151 72.0249 34.5151],1.968,1.339,2.676,2.121,2.154,1.554,2.893,2.27,267.0,574.0
2015-05-05,Peshawar,Pakistan,71.5249,34.0151,[71.0249 33.5151 72.0249 34.5151],1.968,1.339,2.676,2.121,2.162,1.577,2.867,2.27,267.0,555.0
2015-05-06,Peshawar,Pakistan,71.5249,34.0151,[71.0249 33.5151 72.0249 34.5151],1.969,1.279,2.63,2.129,2.191,1.588,2.914,2.311,231.0,557.0
2015-05-07,Peshawar,Pakistan,71.5249,34.0151,[71.0249 33.5151 72.0249 34.5151],2.111,1.414,2.82,2.224,2.214,1.573,2.947,2.312,266.0,552.0
2015-05-08,Peshawar,Pakistan,71.5249,34.0151,[71.0249 33.5151 72.0249 34.5151],2.111,1.413,2.811,2.192,2.222,1.603,2.965,2.325,247.0,555.0
2015-05-09,Peshawar,Pakistan,71.5249,34.0151,[71.0249 33.5151 72.0249 34.5151],2.16,1.478,2.811,2.205,2.211,1.588,2.946,2.31,268.0,559.0
2015-05-10,Peshawar,Pakistan,71.5249,34.0151,[71.0249 33.5151 72.0249 34.5151],2.14,1.465,2.868,2.201,2.205,1.594,2.931,2.301,259.0,570.0
2015-05-11,Peshawar,Pakistan,71.5249,34.0151,[71.0249 33.5151 72.0249 34.5151],2.215,1.497,2.962,2.282,2.217,1.588,2.94,2.31,255.0,569.0
2015-05-12,Peshawar,Pakistan,71.5249,34.0151,[71.0249 33.5151 72.0249 34.5151],2.16,1.47,2.999,2.26,2.197,1.589,2.947,2.314,251.0,566.0
2015-05-13,Peshawar,Pakistan,71.5249,34.0151,[71.0249 33.5151 72.0249 34.5151],2.288,1.601,3.071,2.393,2.233,1.61,2.962,2.334,241.0,571.0
2015-05-14,Peshawar,Pakistan,71.5249,34.0151,[71.0249 33.5151 72.0249 34.5151],2.281,1.66,3.071,2.396,2.217,1.598,2.932,2.327,269.0,558.0
2015-05-15,Peshawar,Pakistan,71.5249,34.0151,[71.0249 33.5151 72.0249 34.5151],2.281,1.744,3.134,2.44,2.201,1.632,2.95,2.321,250.0,563.0
2015-05-16,Peshawar,Pakistan,71.5249,34.0151,[71.0249 33.5151 72.0249 34.5151],2.288,1.803,3.147,2.478,2.215,1.646,2.955,2.34,256.0,563.0
2015-05-17,Peshawar,Pakistan,71.5249,34.0151,[71.0249 33.5151 72.0249 34.5151],2.252,1.704,3.001,2.351,2.208,1.615,2.896,2.302,263.0,576.0
2015-05-18,Peshawar,Pakistan,71.5249,34.0151,[71.0249 33.5151 72.0249 34.5151],2.268,1.705,3.001,2.345,2.172,1.564,2.832,2.24,237.0,585.0
2015-05-19,Peshawar,Pakistan,71.5249,34.0151,[71.0249 33.5151 72.0249 34.5151],2.279,1.744,3.043,2.373,2.149,1.563,2.807,2.225,265.0,591.0
2015-05-20,Peshawar,Pakistan,71.5249,34.0151,[71.0249 33.5151 72.0249 34.5151],2.268,1.704,3.027,2.355,2.165,1.568,2.81,2.227,292.0,601.0
2015-05-21,Peshawar,Pakistan,71.5249,34.0151,[71.0249 33.5151 72.0249 34.5151],2.268,1.709,3.027,2.354,2.155,1.563,2.848,2.209,310.0,583.0
2015-05-22,Peshawar,Pakistan,71.5249,34.0151,[71.0249 33.5151 72.0249 34.5151],2.22,1.661,2.936,2.3,2.143,1.575,2.811,2.192,275.0,585.0
2015-05-23,Peshawar,Pakistan,71.5249,34.0151,[71.0249 33.5151 72.0249 34.5151],2.22,1.7,2.872,2.293,2.148,1.593,2.814,2.205,304.0,582.0
2015-05-24,Peshawar,Pakistan,71.5249,34.0151,[71.0249 33.5151 72.0249 34.5151],2.22,1.709,2.909,2.325,2.172,1.618,2.836,2.231,263.0,586.0
2015-05-25,Peshawar,Pakistan,71.5249,34.0151,[71.0249 33.5151 72.0249 34.5151],2.269,1.738,2.907,2.348,2.154,1.588,2.785,2.204,285.0,587.0
2015-05-26,Peshawar,Pakistan,71.5249,34.0151,[71.0249 33.5151 72.0249 34.5151],2.269,1.738,2.907,2.346,2.18,1.627,2.843,2.236,296.0,598.0
2015-05-27,Peshawar,Pakistan,71.5249,34.0151,[71.0249 33.5151 72.0249 34.5151],2.309,1.788,2.974,2.414,2.174,1.633,2.832,2.231,304.0,595.0
2015-05-28,Peshawar,Pakistan,71.5249,34.0151,[71.0249 33.5151 72.0249 34.5151],2.305,1.758,2.915,2.378,2.183,1.612,2.785,2.231,302.0,589.0
2015-05-29,Peshawar,Pakistan,71.5249,34.0151,[71.0249 33.5151 72.0249 34.5151],2.31,1.758,2.907,2.364,2.181,1.645,2.81,2.236,290.0,591.0
2015-05-30,Peshawar,Pakistan,71.5249,34.0151,[71.0249 33.5151 72.0249 34.5151],2.184,1.674,2.828,2.261,2.16,1.633,2.818,2.224,320.0,576.0
2015-05-31,Peshawar,Pakistan,71.5249,34.0151,[71.0249 33.5151 72.0249 34.5151],2.178,1.606,2.789,2.224,2.17,1.609,2.8,2.221,283.0,578.0
2015-06-01,Peshawar,Pakistan,71.5249,34.0151,[71.0249 33.5151 72.0249 34.5151],2.225,1.697,2.862,2.33,2.215,1.636,2.85,2.252,288.0,578.0
2015-06-02,Peshawar,Pakistan,71.5249,34.0151,[71.0249 33.5151 72.0249 34.5151],2.22,1.68,2.862,2.316,2.226,1.646,2.869,2.279,320.0,578.0
2015-06-03,Peshawar,Pakistan,71.5249,34.0151,[71.0249 33.5151 72.0249 34.5151],2.225,1.68,2.915,2.364,2.227,1.658,2.906,2.295,301.0,574.0
2015-06-04,Peshawar,Pakistan,71.5249,34.0151,[71.0249 33.5151 72.0249 34.5151],2.225,1.641,2.915,2.354,2.275,1.739,2.997,2.351,302.0,575.0
2015-06-05,Peshawar,Pakistan,71.5249,34.0151,[71.0249 33.5151 72.0249 34.5151],2.235,1.662,2.923,2.368,2.307,1.752,3.068,2.405,310.0,583.0
2015-06-06,Peshawar,Pakistan,71.5249,34.0151,[71.0249 33.5151 72.0249 34.5151],2.283,1.697,2.97,2.404,2.346,1.801,3.107,2.442,329.0,564.0
2015-06-07,Peshawar,Pakistan,71.5249,34.0151,[71.0249 33.5151 72.0249 34.5151],2.305,1.662,3.086,2.428,2.35,1.782,3.13,2.434,300.0,564.0
2015-06-08,Peshawar,Pakistan,71.5249,34.0151,[71.0249 33.5151 72.0249 34.5151],2.361,1.75,3.162,2.49,2.36,1.779,3.161,2.444,331.0,561.0
2015-06-09,Peshawar,Pakistan,71.5249,34.0151,[71.0249 33.5151 72.0249 34.5151],2.344,1.75,3.269,2.514,2.389,1.82,3.19,2.486,292.0,569.0
2015-06-10,Peshawar,Pakistan,71.5249,34.0151,[71.0249 33.5151 72.0249 34.5151],2.315,1.662,3.136,2.437,2.374,1.768,3.156,2.449,296.0,571.0
2015-06-11,Peshawar,Pakistan,71.5249,34.0151,[71.0249 33.5151 72.0249 34.5151],2.226,1.596,3.081,2.366,2.422,1.779,3.176,2.475,305.0,583.0
2015-06-12,Peshawar,Pakistan,71.5249,34.0151,[71.0249 33.5151 72.0249 34.5151],2.294,1.641,3.136,2.428,2.446,1.838,3.167,2.517,314.0,581.0
2015-06-13,Peshawar,Pakistan,71.5249,34.0151,[71.0249 33.5151 72.0249 34.5151],2.318,1.662,3.144,2.445,2.504,1.862,3.24,2.56,313.0,577.0
2015-06-14,Peshawar,Pakistan,71.5249,34.0151,[71.0249 33.5151 72.0249 34.5151],2.605,1.808,3.351,2.592,2.582,1.914,3.296,2.609,300.0,584.0
2015-06-15,Peshawar,Pakistan,71.5249,34.0151,[71.0249 33.5151 72.0249 34.5151],2.605,1.808,3.303,2.587,2.592,1.921,3.308,2.63,311.0,570.0
2015-06-16,Peshawar,Pakistan,71.5249,34.0151,[71.0249 33.5151 72.0249 34.5151],2.605,1.783,3.27,2.558,2.592,1.896,3.316,2.617,279.0,572.0
2015-06-17,Peshawar,Pakistan,71.5249,34.0151,[71.0249 33.5151 72.0249 34.5151],2.632,1.807,3.3,2.592,2.598,1.904,3.331,2.629,247.0,570.0
2015-06-18,Peshawar,Pakistan,71.5249,34.0151,[71.0249 33.5151 72.0249 34.5151],2.528,1.783,3.139,2.472,2.626,1.939,3.334,2.642,268.0,584.0
2015-06-19,Peshawar,Pakistan,71.5249,34.0151,[71.0249 33.5151 72.0249 34.5151],2.605,1.808,3.162,2.518,2.654,1.909,3.322,2.636,240.0,593.0